TimeBST,TemperatureF,Dew PointF,Humidity,Sea Level PressureIn,VisibilityMPH,Wind Direction,Wind SpeedMPH,Gust SpeedMPH,PrecipitationIn,Events,Conditions,WindDirDegrees,DateUTC
12:50 AM,40,37,84,30.17,22,WNW,2.3,,,,,300,2013-05-25 23:50:00
3:50 AM,42,37,78,30.15,11,WNW,3.5,,,,,290,2013-05-26 02:50:00
6:50 AM,44,38,73,30.15,11,WNW,3.5,,,,,300,2013-05-26 05:50:00
7:50 AM,46.4,37.4,71,30.12,-9999.0,WNW,4.6,-,N/A,,Clear,290,2013-05-26 06:50:00
8:50 AM,50.0,37.4,62,30.12,-9999.0,NW,6.9,-,N/A,,Clear,320,2013-05-26 07:50:00
9:20 AM,53.6,41.0,62,30.12,-9999.0,WNW,6.9,-,N/A,,Clear,300,2013-05-26 08:20:00
9:50 AM,56,39,42,30.14,19,NW,6.9,,,,,310,2013-05-26 08:50:00
9:50 AM,55.4,41.0,58,30.12,-9999.0,WNW,6.9,-,N/A,,Clear,300,2013-05-26 08:50:00
10:20 AM,57.2,41.0,55,30.12,-9999.0,WNW,6.9,-,N/A,,Clear,290,2013-05-26 09:20:00
10:50 AM,59.0,39.2,48,30.12,-9999.0,WNW,8.1,-,N/A,,Clear,300,2013-05-26 09:50:00
11:20 AM,59.0,41.0,51,30.12,-9999.0,NNW,10.4,-,N/A,,Clear,340,2013-05-26 10:20:00
11:50 AM,60.8,37.4,42,30.12,-9999.0,NW,10.4,-,N/A,,Clear,320,2013-05-26 10:50:00
12:20 PM,60.8,37.4,42,30.09,-9999.0,NW,9.2,-,N/A,,Clear,320,2013-05-26 11:20:00
12:50 PM,61,40,35,30.11,22,NNW,9.2,,,,,340,2013-05-26 11:50:00
12:50 PM,62.6,37.4,39,30.09,6.2,NNW,6.9,-,N/A,,Unknown,330,2013-05-26 11:50:00
1:20 PM,62.6,39.2,42,30.09,-9999.0,NNW,10.4,-,N/A,,Clear,330,2013-05-26 12:20:00
1:50 PM,62.6,41.0,45,30.09,-9999.0,NW,8.1,-,N/A,,Clear,320,2013-05-26 12:50:00
2:20 PM,64.4,37.4,37,30.06,-9999.0,West,6.9,-,N/A,,Clear,280,2013-05-26 13:20:00
2:50 PM,64.4,39.2,40,30.06,-9999.0,West,9.2,-,N/A,,Clear,260,2013-05-26 13:50:00
3:20 PM,64.4,37.4,37,30.06,-9999.0,WSW,11.5,-,N/A,,Clear,240,2013-05-26 14:20:00
3:50 PM,64,39,29,30.05,22,West,8.1,,,,Partly Cloudy,280,2013-05-26 14:50:00
3:50 PM,62.6,33.8,34,30.04,-9999.0,Variable,6.9,-,N/A,,Clear,0,2013-05-26 14:50:00
4:20 PM,64.4,39.2,40,30.04,-9999.0,Variable,8.1,-,N/A,,Clear,0,2013-05-26 15:20:00
4:50 PM,64.4,37.4,37,30.04,-9999.0,WNW,8.1,-,N/A,,Clear,290,2013-05-26 15:50:00
5:20 PM,64.4,39.2,40,30.04,-9999.0,West,9.2,-,N/A,,Clear,280,2013-05-26 16:20:00
5:50 PM,62.6,37.4,39,30.01,-9999.0,WSW,8.1,-,N/A,,Clear,250,2013-05-26 16:50:00
6:20 PM,62.6,37.4,39,30.01,-9999.0,WSW,11.5,-,N/A,,Clear,250,2013-05-26 17:20:00
6:50 PM,61,39,32,30.01,19,WSW,8.1,,,,Scattered Clouds,240,2013-05-26 17:50:00
6:50 PM,60.8,37.4,42,30.01,-9999.0,WSW,10.4,-,N/A,,Clear,240,2013-05-26 17:50:00
7:20 PM,60.8,37.4,42,30.01,-9999.0,WSW,9.2,-,N/A,,Clear,250,2013-05-26 18:20:00
7:50 PM,60.8,37.4,42,29.98,-9999.0,WSW,8.1,-,N/A,,Clear,250,2013-05-26 18:50:00
9:50 PM,52,37,46,30.00,19,WSW,6.9,,,,,250,2013-05-26 20:50:00